This is the latest recevied weather packets stored in our database for station/object K0CVS. If no packets are shown the sender has not sent any weather packets the latest 10 day(s).
| Time | Temp. | Humidity | Pressure | Rain* | Wind** | Luminosity | Snow |
|---|---|---|---|---|---|---|---|
| 1777572945 | 17.78° C | 48% | 1017.6 hPa | 0 mm | - | 309 W/m² | - |
| 1777572641 | 17.78° C | 47% | 1017.8 hPa | 0 mm | - | 258 W/m² | - |
| 1777572341 | 17.78° C | 47% | 1017.7 hPa | 0 mm | - | 129 W/m² | - |
| 1777572038 | 17.78° C | 48% | 1017.8 hPa | 0 mm | - | 157 W/m² | - |
| 1777571732 | 17.78° C | 46% | 1017.8 hPa | 0 mm | - | 204 W/m² | - |
| 1777571430 | 18.33° C | 48% | 1017.9 hPa | 0 mm | - | 180 W/m² | - |
| 1777571126 | 17.78° C | 46% | 1018 hPa | 0 mm | - | 235 W/m² | - |
| 1777570822 | 18.33° C | 44% | 1018.1 hPa | 0 mm | - | 485 W/m² | - |
| 1777570518 | 19.44° C | 42% | 1018.2 hPa | 0 mm | - | 191 W/m² | - |
| 1777570215 | 19.44° C | 45% | 1018.2 hPa | 0 mm | - | 222 W/m² | - |
| 1777569910 | 18.89° C | 43% | 1018.3 hPa | 0 mm | - | 759 W/m² | - |
| 1777569606 | 18.89° C | 43% | 1018.4 hPa | 0 mm | - | 708 W/m² | - |
| 1777569303 | 18.33° C | 46% | 1018.5 hPa | 0 mm | - | 723 W/m² | - |
| 1777568999 | 18.33° C | 44% | 1018.4 hPa | 0 mm | - | 547 W/m² | - |
| 1777568696 | 18.33° C | 46% | 1018.6 hPa | 0 mm | - | 577 W/m² | - |
| 1777568393 | 17.78° C | 47% | 1018.7 hPa | 0 mm | - | 731 W/m² | - |
| 1777568090 | 17.78° C | 48% | 1018.8 hPa | 0 mm | - | 762 W/m² | - |
| 1777567787 | 17.78° C | 45% | 1018.9 hPa | 0 mm | - | 460 W/m² | - |
| 1777567483 | 17.78° C | 45% | 1018.8 hPa | 0 mm | - | 301 W/m² | - |
| 1777567181 | 17.78° C | 45% | 1018.9 hPa | 0 mm | - | 656 W/m² | - |
| 1777566879 | 17.78° C | 48% | 1018.8 hPa | 0 mm | - | 651 W/m² | - |
| 1777566576 | 17.22° C | 47% | 1018.9 hPa | 0 mm | - | 642 W/m² | - |
| 1777566273 | 17.22° C | 47% | 1019 hPa | 0 mm | - | 633 W/m² | - |
| 1777565971 | 16.67° C | 49% | 1019.1 hPa | 0 mm | - | 629 W/m² | - |
| 1777565666 | 16.67° C | 50% | 1019.1 hPa | 0 mm | - | 581 W/m² | - |
* Rain latest hour (hover to see other rain measurements)
** Current wind speed in m/s (hover to see current wind gust speed)